DateTimeUTC,F1_A11,F1_S11,BsB_S11,BsG_S11,BsR_S11,BbsB_S11,BbsG_S11,BbsR_S11,BaB_A11,BaG_A11,BaR_A11,Tu_S11,T_S11,Uu_S11,U_S11,P_S11,T1_A11
2021-07-18T20:00:00Z,00000200,20000000,,,,,,,0000.09,0000.36,-000.24,18.8,25.2,12.9,08.7,0673.2,31.1
2021-07-18T20:01:00Z,00000200,20000000,,,,,,,-000.09,-000.44,0000.17,18.8,25.2,12.9,08.7,0673.2,31.1
2021-07-18T20:02:00Z,00000200,20000000,,,,,,,-000.01,-000.05,0000.04,18.8,25.2,12.9,08.7,0673.2,31.1
2021-07-18T20:03:00Z,00000200,60000000,,,,,,,0001.87,0001.49,0001.14,18.8,25.2,12.9,08.7,0673.2,31.1
2021-07-18T20:04:00Z,00000200,40000000,0010.98,0008.02,0004.97,0001.59,0000.91,0000.66,0002.26,0002.27,0001.42,18.8,25.1,13.0,08.9,0674.2,31.1
2021-07-18T20:05:00Z,00000200,00000000,0010.74,0008.06,0004.87,0001.32,0001.10,0000.21,0001.98,0001.81,0001.67,18.9,25.0,13.0,08.9,0674.2,31.1
2021-07-18T20:06:00Z,00000200,00000000,0010.47,0007.74,0004.95,0001.49,0000.76,0000.67,0002.28,0001.92,0001.35,18.9,25.0,12.9,08.9,0674.3,31.1
2021-07-18T20:07:00Z,00000200,00000000,0011.60,0007.92,0004.83,0001.35,0001.17,0000.67,0002.45,0002.15,0002.05,18.9,25.0,13.1,09.0,0674.2,31.1
2021-07-18T20:08:00Z,00000200,00000000,0010.94,0008.29,0005.13,0000.89,0000.78,0000.61,0002.25,0002.02,0001.26,18.9,25.0,13.1,09.0,0674.2,31.1
2021-07-18T20:09:00Z,00000200,00000000,0011.46,0008.26,0004.87,0001.32,0000.82,0000.70,0001.94,0001.95,0001.30,18.9,25.0,13.1,09.0,0674.3,31.1
2021-07-18T20:10:00Z,00000200,00000000,0011.15,0008.64,0005.14,0001.63,0001.10,0001.17,0001.99,0002.15,0002.23,18.9,25.0,13.2,09.0,0674.3,31.1
2021-07-18T20:11:00Z,00000200,00000000,0010.55,0008.50,0004.66,0001.49,0000.98,0001.17,0002.32,0002.00,0001.28,18.9,25.0,13.1,09.0,0674.3,31.1
2021-07-18T20:12:00Z,00000200,00000000,0011.00,0007.90,0004.87,0001.30,0000.76,0000.83,0002.33,0002.31,0001.55,18.9,25.0,13.1,09.0,0674.3,31.1
2021-07-18T20:13:00Z,00000200,00000000,0009.93,0008.00,0004.83,0001.04,0000.75,0000.58,0002.05,0001.82,0001.24,18.9,25.0,13.2,09.0,0674.3,31.1
2021-07-18T20:14:00Z,00000200,00000000,0011.01,0008.60,0005.02,0001.02,0000.64,0000.56,0002.12,0001.70,0001.90,18.9,25.0,13.2,09.1,0674.3,31.1
2021-07-18T20:15:00Z,00000200,00000000,0011.06,0008.78,0005.14,0000.78,0000.84,0000.65,0002.25,0002.25,0001.73,18.9,25.0,13.1,09.0,0674.3,31.1
2021-07-18T20:16:00Z,00000200,00000000,0010.53,0008.46,0004.74,0001.21,0000.69,0000.81,0002.24,0002.07,0001.28,18.9,25.0,13.1,09.0,0674.3,31.1
2021-07-18T20:17:00Z,00000200,00000000,0010.04,0008.21,0005.03,0001.23,0000.91,0000.92,0002.10,0001.82,0001.55,18.9,25.0,13.0,09.0,0674.3,31.1
2021-07-18T20:18:00Z,00000200,00000000,0010.69,0007.89,0004.70,0001.38,0000.67,0000.26,0002.30,0002.02,0001.55,18.9,25.0,13.0,09.0,0674.3,31.1
2021-07-18T20:19:00Z,00000200,00000000,0009.99,0008.03,0004.63,0000.50,0001.00,0000.57,0002.08,0002.03,0001.38,18.9,25.0,13.0,09.0,0674.3,31.0
2021-07-18T20:20:00Z,00000200,00000000,0011.30,0008.21,0004.62,0001.39,0001.15,0000.57,0002.11,0001.94,0001.87,18.9,25.0,13.1,09.0,0674.3,31.0
2021-07-18T20:21:00Z,00000200,00000000,0010.55,0008.35,0005.06,0001.60,0001.05,0000.68,0002.04,0001.76,0001.26,18.9,25.0,13.3,09.1,0674.3,31.1
2021-07-18T20:22:00Z,00000200,00000000,0011.01,0008.36,0004.85,0001.18,0001.09,0001.00,0002.04,0002.02,0001.34,18.9,25.0,13.1,09.0,0674.3,31.1
2021-07-18T20:23:00Z,00000200,00000000,0011.39,0007.98,0004.72,0001.46,0001.05,0000.51,0002.17,0001.99,0001.42,18.9,25.0,13.1,09.1,0674.3,31.1
2021-07-18T20:24:00Z,00000200,00000000,0011.11,0008.24,0004.81,0001.30,0000.76,0000.36,0002.43,0001.96,0001.65,18.9,25.0,13.1,09.1,0674.3,31.1
2021-07-18T20:25:00Z,00000200,00000000,0010.64,0008.49,0005.04,0000.88,0001.00,0001.01,0002.04,0002.17,0001.21,18.9,25.0,13.2,09.1,0674.3,31.1
2021-07-18T20:26:00Z,00000200,00000000,0010.74,0008.97,0005.20,0002.17,0001.09,0000.96,0002.12,0001.67,0001.83,18.9,25.0,13.3,09.2,0674.3,31.1
2021-07-18T20:27:00Z,00000200,00000000,0012.11,0008.75,0005.13,0001.27,0000.69,0000.72,0002.28,0001.93,0001.71,18.9,25.0,13.3,09.2,0674.3,31.1
2021-07-18T20:28:00Z,00000200,00000000,0011.45,0008.60,0005.23,0001.29,0001.05,0000.66,0002.22,0002.08,0001.47,18.9,25.0,13.2,09.1,0674.3,31.1
2021-07-18T20:29:00Z,00000200,00000000,0011.33,0008.63,0005.41,0001.14,0001.00,0001.06,0001.64,0001.85,0001.67,18.9,25.0,13.2,09.1,0674.3,31.1
2021-07-18T20:30:00Z,00000200,00000000,0011.32,0008.63,0005.46,0000.91,0001.08,0000.94,0002.31,0002.37,0001.19,18.9,25.0,13.2,09.1,0674.3,31.1
2021-07-18T20:31:00Z,00000200,00000000,0011.57,0009.19,0005.23,0001.03,0001.16,0000.79,0002.38,0001.75,0001.72,18.9,25.0,13.1,09.0,0674.3,31.1
2021-07-18T20:32:00Z,00000200,00000000,0011.95,0009.25,0005.23,0001.55,0000.92,0000.91,0002.51,0002.12,0002.09,18.9,25.0,13.2,09.1,0674.3,31.1
2021-07-18T20:33:00Z,00000200,00000000,0011.69,0009.45,0005.19,0001.36,0001.18,0000.74,0002.04,0001.85,0001.24,18.9,25.0,13.3,09.2,0674.3,31.1
2021-07-18T20:34:00Z,00000200,00000000,0012.33,0009.32,0005.57,0001.11,0000.85,0000.53,0002.37,0002.38,0001.51,18.9,25.0,13.3,09.2,0674.4,31.1
2021-07-18T20:35:00Z,00000200,00000000,0012.51,0009.40,0005.89,0001.29,0000.97,0000.93,0002.24,0001.88,0001.55,18.9,25.0,13.4,09.2,0674.3,31.1
2021-07-18T20:36:00Z,00000200,00000000,0012.11,0009.55,0005.79,0001.19,0001.15,0001.00,0002.06,0002.08,0001.80,18.9,25.0,13.4,09.3,0674.4,31.1
2021-07-18T20:37:00Z,00000200,00000000,0012.52,0009.65,0005.88,0000.88,0000.85,0000.81,0002.45,0002.36,0001.40,18.9,25.0,13.4,09.3,0674.4,31.1
2021-07-18T20:38:00Z,00000200,00000000,0012.55,0009.42,0006.00,0001.40,0001.14,0000.62,0002.13,0001.88,0001.84,18.9,25.0,13.3,09.2,0674.4,31.1
2021-07-18T20:39:00Z,00000200,00000000,0012.07,0009.42,0005.83,0001.04,0001.33,0000.75,0002.72,0001.90,0001.71,18.9,25.0,13.4,09.2,0674.4,31.1
2021-07-18T20:40:00Z,00000200,00000000,0013.05,0009.37,0005.80,0001.42,0001.23,0000.90,0001.95,0002.23,0001.34,18.9,25.0,13.3,09.2,0674.3,31.1
2021-07-18T20:41:00Z,00000200,00000000,0011.95,0009.47,0005.92,0001.19,0001.33,0001.00,0002.20,0002.25,0001.87,18.9,25.0,13.4,09.2,0674.4,31.1
2021-07-18T20:42:00Z,00000200,00000000,0013.77,0009.51,0006.01,0001.24,0001.47,0000.90,0002.74,0002.52,0001.89,18.9,25.0,13.4,09.2,0674.3,31.1
2021-07-18T20:43:00Z,00000200,00000000,0012.42,0009.00,0005.54,0001.29,0001.04,0000.79,0002.16,0001.91,0001.61,18.9,25.0,13.7,09.4,0674.3,31.1
2021-07-18T20:44:00Z,00000200,00000000,0011.96,0009.77,0005.61,0000.97,0001.00,0000.43,0002.48,0001.94,0001.65,18.9,25.0,13.8,09.5,0674.4,31.1
2021-07-18T20:45:00Z,00000200,00000000,0011.84,0009.02,0005.65,0001.33,0000.77,0000.75,0002.00,0002.12,0001.23,18.9,25.0,13.8,09.5,0674.3,31.1
2021-07-18T20:46:00Z,00000200,00000000,0012.76,0009.76,0005.60,0001.41,0001.26,0000.80,0002.02,0002.26,0001.49,18.9,25.0,13.7,09.4,0674.3,31.1
2021-07-18T20:47:00Z,00000200,00000000,0012.41,0009.44,0005.75,0001.45,0001.15,0000.80,0002.49,0001.81,0002.04,18.9,25.0,13.8,09.5,0674.3,31.1
2021-07-18T20:48:00Z,00000200,00000000,0013.09,0009.89,0006.22,0001.79,0001.17,0001.08,0002.51,0002.35,0001.60,18.9,25.0,13.6,09.4,0674.4,31.1
2021-07-18T20:49:00Z,00000200,00000000,0013.99,0010.70,0006.06,0001.01,0000.95,0000.93,0002.58,0002.20,0001.70,18.9,25.0,13.7,09.5,0674.4,31.1
2021-07-18T20:50:00Z,00000200,00000000,0013.15,0010.58,0006.27,0001.37,0001.39,0000.79,0002.47,0002.32,0002.06,18.9,25.0,13.8,09.5,0674.4,31.1
2021-07-18T20:51:00Z,00000200,00000000,0012.93,0009.50,0005.44,0001.21,0001.10,0000.76,0002.35,0002.11,0001.71,18.9,25.0,13.7,09.5,0674.4,31.1
2021-07-18T20:52:00Z,00000200,00000000,0012.77,0010.13,0005.83,0001.49,0001.31,0000.85,0002.30,0002.18,0001.44,18.9,25.0,13.7,09.5,0674.4,31.1
2021-07-18T20:53:00Z,00000200,00000000,0013.78,0010.77,0006.29,0001.64,0001.13,0000.91,0002.61,0002.39,0002.05,18.9,25.0,13.8,09.6,0674.4,31.1
2021-07-18T20:54:00Z,00000200,00000000,0014.90,0010.67,0007.06,0001.56,0000.84,0000.86,0002.57,0002.41,0001.53,18.9,25.0,13.8,09.5,0674.4,31.0
2021-07-18T20:55:00Z,00000200,00000000,0014.27,0010.47,0006.74,0001.57,0001.19,0000.90,0002.28,0002.47,0001.86,18.9,25.0,13.7,09.4,0674.4,31.1
2021-07-18T20:56:00Z,00000200,00000000,0015.29,0010.95,0007.05,0001.58,0001.37,0000.94,0002.91,0001.95,0001.73,18.9,25.0,13.7,09.5,0674.4,31.1
2021-07-18T20:57:00Z,00000200,40000000,,,,,,,0000.28,0000.58,0000.30,19.0,25.0,13.8,09.6,0674.4,31.1
2021-07-18T20:58:00Z,00000200,60000000,,,,,,,0000.06,0000.27,0000.25,18.8,25.2,13.6,09.1,0673.4,31.1
2021-07-18T20:59:00Z,00000200,20000000,,,,,,,-000.35,-000.38,-000.19,18.8,25.3,13.7,09.2,0673.4,31.1
